FW2595 Weather Reports


Display with metric or nautical units.
time (UTC)temp
F
wind
direction
speed
MPH
gust
MPH
rain 1hr
in
rain 24hr
in
rain mn
in
humidity
%
barometer
mb
20260505151527 55 123 0.0 0.0 0.00 0.00 0.00 83 1015.2
20260505124515 54 306 0.0 4.0 0.00 0.00 0.00 79 1014.4
20260505123017 55 314 0.0 3.0 0.00 0.00 0.00 78 1014.5
20260505121512 55 298 0.0 5.0 0.00 0.00 0.00 78 1014.6
20260505120022 54 325 3.0 5.0 0.00 0.00 0.00 78 1014.6
20260505114510 54 324 0.0 2.0 0.00 0.00 0.00 79 1014.5
20260505113013 54 23 0.0 4.0 0.00 0.00 0.00 80 1014.5
20260505111522 53 17 0.0 0.0 0.00 0.00 0.00 83 1014.4
20260505101505 54 286 0.0 0.0 0.00 0.00 0.00 82 1014.4
20260505100104 54 13 0.0 0.0 0.00 0.00 0.00 80 1014.6
20260505094501 54 13 0.0 1.0 0.00 0.00 0.00 81 1014.5
20260505093100 54 294 0.0 2.0 0.00 0.00 0.00 82 1014.6
20260505093003 54 294 0.0 2.0 0.00 0.00 0.00 82 1014.5
20260505091619 54 292 1.0 5.0 0.00 0.00 0.00 84 1014.7
20260505090121 53 311 0.0 0.0 0.00 0.00 0.00 86 1015.0
20260505084614 53 284 0.0 0.0 0.00 0.00 0.00 87 1014.9
20260505083107 53 284 0.0 0.0 0.00 0.00 0.00 86 1015.0
20260505081601 53 12 0.0 0.0 0.00 0.00 0.00 85 1015.1
20260505080100 54 12 0.0 0.0 0.00 0.00 0.00 85 1015.1
20260505074550 54 12 0.0 0.0 0.00 0.00 0.00 85 1015.1
20260505073055 53 341 0.0 0.0 0.00 0.00 0.00 85 1015.0
20260505071554 54 341 0.0 0.0 0.00 0.00 0.00 85 1014.8
20260505070051 53 309 0.0 0.0 0.00 0.00 0.00 84 1014.8
20260505064545 53 242 0.0 0.0 0.00 0.00 0.00 85 1014.6
20260505063051 54 211 0.0 0.0 0.00 0.00 0.00 85 1014.6
20260505061544 54 211 0.0 0.0 0.00 0.00 0.00 85 1014.7
20260505060057 54 142 0.0 0.0 0.00 0.00 0.00 85 1014.8
20260505054543 54 282 0.0 0.0 0.00 0.00 0.00 85 1014.8
20260505053043 54 282 0.0 0.0 0.00 0.00 0.00 85 1014.9
20260505051542 54 311 0.0 3.0 0.00 0.00 0.00 85 1015.1
20260505041551 54 259 0.0 0.0 0.00 0.00 0.00 83 1014.7
20260505040046 55 277 0.0 1.0 0.00 0.00 0.00 83 1014.4
20260505034539 55 260 0.0 2.0 0.00 0.00 0.00 82 1014.3
20260505033039 55 236 0.0 3.0 0.00 0.00 0.00 82 1014.0
20260505031539 56 245 0.0 3.0 0.00 0.00 0.00 81 1014.1
20260505030048 56 311 0.0 7.0 0.00 0.00 0.00 82 1014.0
20260505024540 57 290 1.0 6.0 0.00 0.00 0.00 81 1013.9
20260505023036 57 266 1.0 7.0 0.00 0.00 0.00 80 1013.6
20260505021536 58 251 0.0 4.0 0.00 0.00 0.00 79 1013.6
20260505020040 59 267 1.0 6.0 0.00 0.00 0.00 76 1013.7
20260505014553 59 280 0.0 5.0 0.00 0.00 0.00 76 1013.8
20260505013039 60 273 2.0 11.0 0.00 0.00 0.00 74 1013.9
20260505011538 61 242 2.0 8.0 0.00 0.00 0.00 70 1014.1
20260505010031 61 284 4.0 12.0 0.00 0.00 0.00 69 1014.3
20260505004541 61 244 3.0 11.0 0.00 0.00 0.00 68 1014.4
20260505003049 63 268 3.0 10.0 0.00 0.00 0.00 65 1014.4
20260505001528 63 263 2.0 10.0 0.00 0.00 0.00 67 1014.2
20260505000034 63 252 4.0 12.0 0.00 0.00 0.00 68 1014.1
20260504234527 64 276 0.0 11.0 0.00 0.00 0.00 70 1014.1
20260504233028 63 262 3.0 14.0 0.00 0.00 0.00 69 1014.3
20260504231524 64 232 1.0 10.0 0.00 0.00 0.00 69 1014.3
20260504230023 63 256 3.0 14.0 0.00 0.00 0.00 69 1014.4
20260504224522 63 222 3.0 10.0 0.00 0.00 0.00 71 1014.6
20260504223021 63 232 2.0 10.0 0.00 0.00 0.00 73 1014.8
20260504221522 63 236 3.0 11.0 0.00 0.00 0.00 75 1014.9
20260504220019 63 219 1.0 7.0 0.00 0.00 0.00 75 1015.1
20260504214519 64 252 4.0 10.0 0.00 0.00 0.00 73 1015.2
20260504213023 64 239 3.0 11.0 0.00 0.00 0.00 73 1015.1
20260504211529 63 223 3.0 9.0 0.00 0.00 0.00 75 1015.5
20260504210015 63 212 4.0 10.0 0.00 0.00 0.00 77 1015.4
20260504204518 63 273 2.0 7.0 0.00 0.00 0.00 75 1015.5
20260504203012 63 156 3.0 10.0 0.00 0.00 0.00 76 1015.6
20260504201509 63 207 4.0 10.0 0.00 0.00 0.00 76 1015.6
20260504200009 64 229 3.0 8.0 0.00 0.00 0.00 77 1015.7
20260504194507 63 232 3.0 9.0 0.00 0.00 0.00 78 1015.7
20260504193007 63 221 3.0 8.0 0.00 0.00 0.00 79 1015.7
20260504191612 63 234 4.0 8.0 0.00 0.00 0.00 79 1015.6
20260504190002 62 219 4.0 8.0 0.00 0.00 0.00 77 1015.8
20260504184501 62 245 3.0 7.0 0.00 0.00 0.00 79 1015.9
20260504183058 62 192 3.0 7.0 0.00 0.00 0.00 80 1015.8
20260504181601 61 144 3.0 6.0 0.00 0.00 0.00 80 1015.7
20260504180055 61 141 2.0 6.0 0.00 0.00 0.00 82 1015.7
20260504174552 60 196 3.0 6.0 0.00 0.00 0.00 80 1015.5
20260504173054 60 215 1.0 6.0 0.00 0.00 0.00 83 1015.3
20260504171545 59 133 1.0 4.0 0.00 0.00 0.00 84 1015.3